Hourly Weather Kweta

Today, 29 October, Thursday

Time Temperature Precipitation Wind Pressure Humidity
00:00 +9°C° 0 mm 1 mps 616 mmHg 26%
01:00 +8°C° 0 mm 1 mps 615 mmHg 27%
02:00 +8°C° 0 mm 1 mps 615 mmHg 28%
03:00 +7°C° 0 mm 1 mps 615 mmHg 29%
04:00 +7°C° 0 mm 1 mps 615 mmHg 30%
05:00 +8°C° 0 mm 1 mps 616 mmHg 27%
06:00 +10°C° 0 mm 1 mps 617 mmHg 23%
07:00 +11°C° 0 mm 0 mps 618 mmHg 20%
08:00 +14°C° 0 mm 1 mps 619 mmHg 17%
09:00 +16°C° 0 mm 1 mps 620 mmHg 14%
10:00 +19°C° 0 mm 1 mps 621 mmHg 11%
11:00 +20°C° 0 mm 1 mps 621 mmHg 10%
12:00 +21°C° 0 mm 1 mps 620 mmHg 10%
13:00 +21°C° 0 mm 2 mps 620 mmHg 9%
14:00 +20°C° 0 mm 2 mps 620 mmHg 9%
15:00 +19°C° 0 mm 3 mps 620 mmHg 10%
16:00 +19°C° 0 mm 3 mps 619 mmHg 10%
17:00 +16°C° 0 mm 2 mps 619 mmHg 14%
18:00 +14°C° 0 mm 1 mps 618 mmHg 17%
19:00 +11°C° 0 mm 1 mps 618 mmHg 20%
20:00 +11°C° 0 mm 1 mps 618 mmHg 21%
21:00 +10°C° 0 mm 1 mps 618 mmHg 22%
22:00 +10°C° 0 mm 1 mps 618 mmHg 23%
23:00 +9°C° 0 mm 1 mps 617 mmHg 25%

Tomorrow, 30 October, Friday

Time Temperature Precipitation Wind Pressure Humidity
00:00 +8°C° 0 mm 1 mps 617 mmHg 26%
01:00 +7°C° 0 mm 0 mps 617 mmHg 27%
02:00 +6°C° 0 mm 0 mps 616 mmHg 29%
03:00 +6°C° 0 mm 0 mps 616 mmHg 30%
04:00 +6°C° 0 mm 1 mps 616 mmHg 32%
05:00 +7°C° 0 mm 0 mps 617 mmHg 28%
06:00 +9°C° 0 mm 0 mps 618 mmHg 24%
07:00 +11°C° 0 mm 0 mps 619 mmHg 20%
08:00 +13°C° 0 mm 0 mps 620 mmHg 17%
09:00 +16°C° 0 mm 1 mps 621 mmHg 14%
10:00 +19°C° 0 mm 1 mps 622 mmHg 11%
11:00 +20°C° 0 mm 1 mps 622 mmHg 10%
12:00 +20°C° 0 mm 2 mps 621 mmHg 9%
13:00 +20°C° 0 mm 2 mps 621 mmHg 8%
14:00 +20°C° 0 mm 2 mps 621 mmHg 9%
15:00 +19°C° 0 mm 2 mps 621 mmHg 9%
16:00 +19°C° 0 mm 3 mps 620 mmHg 10%
17:00 +16°C° 0 mm 2 mps 620 mmHg 13%
18:00 +13°C° 0 mm 1 mps 619 mmHg 16%
19:00 +11°C° 0 mm 1 mps 618 mmHg 19%
20:00 +10°C° 0 mm 1 mps 618 mmHg 20%
21:00 +10°C° 0 mm 1 mps 618 mmHg 21%
22:00 +9°C° 0 mm 1 mps 618 mmHg 21%
23:00 +9°C° 0 mm 1 mps 618 mmHg 23%

Day after tomorrow, 31 October, Saturday

Time Temperature Precipitation Wind Pressure Humidity
00:00 +8°C° 0 mm 1 mps 617 mmHg 25%
01:00 +8°C° 0 mm 1 mps 617 mmHg 26%
02:00 +6°C° 0 mm 0 mps 617 mmHg 27%
03:00 +6°C° 0 mm 0 mps 616 mmHg 28%
04:00 +5°C° 0 mm 0 mps 616 mmHg 29%
05:00 +7°C° 0 mm 0 mps 617 mmHg 26%
06:00 +9°C° 0 mm 0 mps 618 mmHg 22%
07:00 +10°C° 0 mm 0 mps 620 mmHg 19%
08:00 +12°C° 0 mm 0 mps 620 mmHg 16%
09:00 +15°C° 0 mm 1 mps 621 mmHg 14%
10:00 +19°C° 0 mm 1 mps 622 mmHg 11%
11:00 +19°C° 0 mm 1 mps 622 mmHg 10%
12:00 +19°C° 0 mm 2 mps 621 mmHg 9%
13:00 +20°C° 0 mm 2 mps 621 mmHg 8%
14:00 +19°C° 0 mm 3 mps 621 mmHg 8%
15:00 +19°C° 0 mm 3 mps 621 mmHg 8%
16:00 +18°C° 0 mm 3 mps 620 mmHg 8%
17:00 +15°C° 0 mm 2 mps 620 mmHg 10%
18:00 +13°C° 0 mm 2 mps 619 mmHg 12%
19:00 +10°C° 0 mm 1 mps 618 mmHg 15%
20:00 +9°C° 0 mm 1 mps 618 mmHg 17%
21:00 +9°C° 0 mm 1 mps 618 mmHg 18%
22:00 +8°C° 0 mm 1 mps 618 mmHg 20%
23:00 +7°C° 0 mm 1 mps 617 mmHg 23%

1 November, Sunday

Time Temperature Precipitation Wind Pressure Humidity
00:00 +7°C° 0 mm 1 mps 617 mmHg 25%
01:00 +6°C° 0 mm 1 mps 617 mmHg 27%
02:00 +6°C° 0 mm 1 mps 617 mmHg 30%
03:00 +6°C° 0 mm 1 mps 616 mmHg 32%
04:00 +5°C° 0 mm 1 mps 616 mmHg 35%
05:00 +7°C° 0 mm 1 mps 617 mmHg 28%
06:00 +8°C° 0 mm 1 mps 618 mmHg 22%
07:00 +10°C° 0 mm 1 mps 619 mmHg 15%
08:00 +12°C° 0 mm 1 mps 620 mmHg 12%
09:00 +15°C° 0 mm 1 mps 621 mmHg 10%
10:00 +18°C° 0 mm 1 mps 622 mmHg 7%
11:00 +19°C° 0 mm 1 mps 622 mmHg 6%
12:00 +20°C° 0 mm 1 mps 622 mmHg 5%
13:00 +20°C° 0 mm 2 mps 622 mmHg 5%
14:00 +19°C° 0 mm 2 mps 621 mmHg 5%
15:00 +18°C° 0 mm 2 mps 621 mmHg 5%
16:00 +18°C° 0 mm 2 mps 621 mmHg 6%
17:00 +15°C° 0 mm 2 mps 620 mmHg 8%
18:00 +12°C° 0 mm 1 mps 619 mmHg 10%
19:00 +10°C° 0 mm 1 mps 618 mmHg 12%
20:00 +9°C° 0 mm 1 mps 618 mmHg 13%
21:00 +9°C° 0 mm 1 mps 618 mmHg 15%
22:00 +8°C° 0 mm 1 mps 618 mmHg 16%
23:00 +8°C° 0 mm 1 mps 618 mmHg 19%

2 November, Monday

Time Temperature Precipitation Wind Pressure Humidity
00:00 +7°C° 0 mm 1 mps 617 mmHg 22%
01:00 +6°C° 0 mm 1 mps 617 mmHg 26%
02:00 +6°C° 0 mm 1 mps 617 mmHg 28%
03:00 +6°C° 0 mm 1 mps 616 mmHg 30%
04:00 +5°C° 0 mm 1 mps 616 mmHg 32%
05:00 +7°C° 0 mm 1 mps 617 mmHg 25%
06:00 +8°C° 0 mm 1 mps 618 mmHg 18%
07:00 +10°C° 0 mm 1 mps 619 mmHg 11%
08:00 +13°C° 0 mm 1 mps 620 mmHg 9%
09:00 +15°C° 0 mm 1 mps 621 mmHg 7%
10:00 +19°C° 0 mm 1 mps 622 mmHg 5%
11:00 +19°C° 0 mm 2 mps 622 mmHg 4%
12:00 +20°C° 0 mm 2 mps 622 mmHg 4%
13:00 +21°C° 0 mm 2 mps 622 mmHg 3%
14:00 +20°C° 0 mm 2 mps 621 mmHg 4%
15:00 +19°C° 0 mm 3 mps 621 mmHg 4%
16:00 +18°C° 0 mm 3 mps 621 mmHg 5%
17:00 +16°C° 0 mm 3 mps 620 mmHg 6%
18:00 +13°C° 0 mm 2 mps 619 mmHg 7%
19:00 +10°C° 0 mm 2 mps 619 mmHg 8%
20:00 +10°C° 0 mm 2 mps 619 mmHg 9%
21:00 +9°C° 0 mm 2 mps 618 mmHg 9%
22:00 +9°C° 0 mm 2 mps 618 mmHg 9%
23:00 +8°C° 0 mm 2 mps 618 mmHg 10%

3 November, Tuesday

Time Temperature Precipitation Wind Pressure Humidity
00:00 +7°C° 0 mm 2 mps 617 mmHg 12%
01:00 +7°C° 0 mm 2 mps 617 mmHg 13%
02:00 +7°C° 0 mm 1 mps 616 mmHg 14%
03:00 +7°C° 0 mm 1 mps 616 mmHg 15%
04:00 +6°C° 0 mm 1 mps 616 mmHg 15%
05:00 +8°C° 0 mm 1 mps 617 mmHg 13%
06:00 +9°C° 0 mm 1 mps 618 mmHg 12%
07:00 +11°C° 0 mm 1 mps 618 mmHg 10%
08:00 +13°C° 0 mm 1 mps 619 mmHg 8%
09:00 +16°C° 0 mm 1 mps 620 mmHg 7%
10:00 +19°C° 0 mm 1 mps 621 mmHg 6%
11:00 +19°C° 0 mm 2 mps 621 mmHg 6%
12:00 +20°C° 0 mm 2 mps 621 mmHg 6%
13:00 +21°C° 0 mm 2 mps 620 mmHg 6%
14:00 +20°C° 0 mm 2 mps 620 mmHg 6%
15:00 +19°C° 0 mm 2 mps 620 mmHg 7%
16:00 +19°C° 0 mm 3 mps 619 mmHg 7%
17:00 +16°C° 0 mm 2 mps 619 mmHg 9%
18:00 +14°C° 0 mm 2 mps 618 mmHg 10%
19:00 +10°C° 0 mm 2 mps 617 mmHg 12%
20:00 +10°C° 0 mm 2 mps 617 mmHg 13%
21:00 +10°C° 0 mm 1 mps 617 mmHg 14%
22:00 +9°C° 0 mm 1 mps 616 mmHg 15%
23:00 +9°C° 0 mm 1 mps 616 mmHg 16%
Show more